Location: Mahannah Oil Field
(37.4664°N, 96.6003°W)
Time: 01:50:38
(UTC+00:00)

Tiros 1 despin weight - Pass Details

Date: 27 January 2021
Orbit: 593 x 642 km, 48.2° (Epoch: 25 February)

Event Time Altitude Azimuth Distance (km) Brightness Sun altitude
Rises 19:05:01 0° 235° (SW) 2,909 ? 34.0°
Reaches altitude 10° 19:07:20 10° 235° (SW) 1,997 ? 33.9°
Maximum altitude 19:11:57 89° 324° (NW) 626 ? 33.8°
Drops below altitude 10° 19:16:30 10° 56° (NE) 1,974 ? 33.6°
Sets 19:18:47 0° 56° (ENE) 2,873 ? 33.5°
